Simultaneous Nadir Overpasses (SNOs) Predictions

Prediction of SNOs between METOP-A and TERRA Satellite Orbit:

Table of predicted SNOs for the next 14.0 days since TLE Epoch: 11/24/2013
Index Date (METOP-A) Time (METOP-A) Lat,Lon (METOP-A) SZA (METOP-A ) Date (TERRA) Time (TERRA) Lat,Lon (TERRA) SZA (TERRA ) Distance(km) Time Diff (sec)
1 11/25/2013 18:06:24 -81.32, 136.13 74.76 11/25/2013 18:06:44 -81.32, 135.97 74.77 2.62 20
2 11/25/2013 18:57:04 81.33, -56.37 105.27 11/25/2013 18:56:10 81.33, -56.26 105.26 1.97 54
3 11/28/2013 13:40:43 -81.32,-157.55 74.29 11/28/2013 13:40:59 -81.33,-157.46 74.27 1.86 16
4 11/28/2013 14:31:23 81.32, 9.92 105.74 11/28/2013 14:30:26 81.32, 9.90 105.70 0.93 57
5 12/01/2013 09:15:03 -81.32, -91.32 73.89 12/01/2013 09:15:15 -81.33, -91.13 73.86 3.20 12
6 12/01/2013 10:05:42 81.33, 76.54 106.19 12/01/2013 10:04:41 81.33, 76.59 106.17 0.95 61
7 12/04/2013 04:49:22 -81.32, -24.76 73.50 12/04/2013 04:49:30 -81.33, -24.65 73.48 2.06 8
8 12/04/2013 05:40:01 81.33, 143.08 106.57 12/04/2013 05:38:56 81.33, 143.05 106.54 0.64 65
9 12/07/2013 00:23:40 -81.32, 41.71 73.18 12/07/2013 00:23:44 -81.32, 41.60 73.20 1.94 4




NCC Satellite Simultaneous Nadir Overpasses (SNOs) Prediction Service
